Asuncion, Paraguay

7:35 PM -04 en Septiembre 23, 2017 (GMT -0400)
Silvio Pettirossi International

Tiempo Historia de SGAS - Julio, 2017

Change the Weather History Date:

Lunes, Julio 17, 2017

  Actual Average Record
Temperature  
Temperatura media 47 ° F -  
Temperatura máxima 55 ° F 75 ° F 91 ° F (2001)
Temperatura mínima 37 ° F 58 ° F 33 ° F (2000)
Degree Days  
Grados día de calefacción 18    
Moisture  
Punto de rocío 36 ° F    
Average Humidity 64    
Maximum Humidity 84    
Minimum Humidity 28    
Precipitación  
Precipitación 0.03 pul 0.08 pul - ()
Presión al nivel del mar  
Presión al nivel del mar 30.47 pul    
Viento  
Velocidad del viento 15 mph ()    
Velocidad máxima del viento 23 mph    
Max Gust Speed -    
Visibilidad 7.3 Millas    
Eventos      
Averages and records for this station are not official NWS values.
T = Trace of Precipitation, MM = Missing Value Source: Averaged Metar Reports

Daily Weather History Graph

Daily Weather History Graph

Search for Another Location

Airport or City:

Trip Planner

Search our weather history database for the weather conditions in past years. The results will help you decide how hot, cold, wet, or windy it might be!

Date:

Astronomía

Jul. 17, 2017 Salida Puesta
Hora real 6:34 AM -04 5:18 PM -04
Crepúsculo civil 6:09 AM -04 5:43 PM -04
Crepúsculo náutico 5:41 AM -04 6:11 PM -04
Crepúsculo astronómico 5:13 AM -04 6:38 PM -04
Luna 12:19 AM -04 (7/17) 12:12 PM -04 (7/17)
Horas de luz 11h 33m
Horas de luz
10h 44m
Cuarto menguante, 40% of the Moon is Illuminated
Jul 17
Cuarto menguante
Jul 23
Nueva
Jul 30
Cuarto creciente
Ago 7
Luna llena
Ago 14
Cuarto menguante

Hourly Weather History & Observations

Hora (-04) Temp. Vientos helados Punto de rocío Humedad Presión Visibilidad Wind Dir Velocidad del viento Velocidad de ráfagas Precip Eventos Condiciones
12:00 AM 48.2 ° F - 41.0 ° F 76% 30.33 pul 6.2 mi SSO 23.0 mph - N/A   Nublado
1:00 AM 48.2 ° F - 39.2 ° F 71% 30.36 pul 6.2 mi SSO 17.3 mph - N/A   Nublado
2:00 AM 48 ° F - 44 ° F 82% 30.35 pul 12 mi SSO 23.0 mph - -   Nublado
2:00 AM 48.2 ° F - 39.2 ° F 71% 30.36 pul 6.2 mi SSO 23.0 mph - N/A   Nublado
3:00 AM 46.4 ° F 39.0 ° F 41.0 ° F 81% 30.39 pul 4.3 mi SSO 19.6 mph - N/A   Llovizna
4:00 AM 46.4 ° F 39.5 ° F 41.0 ° F 81% 30.39 pul 4.3 mi SSO 17.3 mph - N/A   Llovizna
5:00 AM 46 ° F - 43 ° F 84% 30.39 pul 12 mi SSO 17.3 mph - -   Nublado
5:00 AM 46.4 ° F 39.5 ° F 39.2 ° F 76% 30.39 pul 6.2 mi SSO 17.3 mph - N/A   Nublado
6:00 AM 46.4 ° F 39.5 ° F 39.2 ° F 76% 30.42 pul 6.2 mi SSO 17.3 mph - N/A   Nublado
7:00 AM 46.4 ° F 40.4 ° F 39.2 ° F 76% 30.45 pul 6.2 mi SSO 13.8 mph - N/A   Nublado
7:30 AM 46.4 ° F 39.5 ° F 39.2 ° F 76% 30.48 pul 6.2 mi SSO 17.3 mph - N/A   Nublado
8:00 AM 47 ° F - 40 ° F 71% 30.50 pul 12 mi SSO 17.3 mph - -   Nublado
8:00 AM 46.4 ° F 39.5 ° F 39.2 ° F 76% 30.48 pul 6.2 mi SSO 17.3 mph - N/A   Nublado
8:30 AM 46.4 ° F 40.4 ° F 39.2 ° F 76% 30.51 pul 6.2 mi SSO 13.8 mph - N/A   Muy nublado
9:00 AM 46.4 ° F 39.5 ° F 37.4 ° F 71% 30.51 pul 6.2 mi SSO 17.3 mph - N/A   Muy nublado
9:30 AM 46.4 ° F 39.5 ° F 37.4 ° F 71% 30.54 pul 6.2 mi SSO 17.3 mph - N/A   Muy nublado
10:00 AM 48.2 ° F - 37.4 ° F 66% 30.54 pul 6.2 mi SSO 15.0 mph - N/A   Muy nublado
11:00 AM 50 ° F - 37 ° F 51% 30.55 pul 12 mi SSO 13.8 mph - -   Parcialmente nublado
11:00 AM 48.2 ° F - 37.4 ° F 66% 30.54 pul 6.2 mi Sur 13.8 mph - N/A   Muy nublado
12:00 PM 51.8 ° F - 37.4 ° F 58% 30.51 pul 6.2 mi SO 18.4 mph - N/A   Muy nublado
1:00 PM 55.4 ° F - 33.8 ° F 44% 30.48 pul 6.2 mi SSO 16.1 mph - N/A   Parcialmente nublado
2:00 PM 55.4 ° F - 30.2 ° F 38% 30.48 pul 6.2 mi SSO 17.3 mph - N/A   Nubes dispersas
3:00 PM 53.6 ° F - 30.2 ° F 41% 30.48 pul 6.2 mi SSO 18.4 mph - N/A   Nubes dispersas
4:00 PM 53.6 ° F - 28.4 ° F 38% 30.48 pul 6.2 mi Sur 18.4 mph - N/A   Nubes dispersas
5:00 PM 52 ° F - 29 ° F 28% 30.50 pul 12 mi Sur 15.0 mph - -   Nubes dispersas
5:00 PM 51.8 ° F - 28.4 ° F 41% 30.48 pul 6.2 mi Sur 15.0 mph - N/A   Parcialmente nublado
6:00 PM 48.2 ° F - 30.2 ° F 50% 30.51 pul - Sur 10.4 mph - N/A   Despejado
7:00 PM 46.4 ° F 41.9 ° F 30.2 ° F 53% 30.51 pul - Sur 9.2 mph - N/A   Despejado
8:00 PM 45 ° F - 31 ° F 46% 30.54 pul 12 mi Sur 6.9 mph - -  
8:00 PM 42.8 ° F 38.6 ° F 30.2 ° F 61% 30.51 pul - Sur 6.9 mph - N/A   Despejado
9:00 PM 42.8 ° F 40.1 ° F 30.2 ° F 61% 30.51 pul - SSE 4.6 mph - N/A   Despejado
10:00 PM 39.2 ° F 37.0 ° F 30.2 ° F 70% 30.54 pul - SSE 3.5 mph - N/A   Despejado
11:00 PM 37.4 ° F - 32.0 ° F 81% 30.54 pul 5.6 mi Sin viento Sin viento - N/A   Desconocido